Regional Weather Roundup
Issued by NWS Bismarck, ND

Home | Current Version | Previous Version | Text Only | Print | Product List | Glossary On
Versions: 1 2 3 4 5 6 7 8 9 10 11 12 13 14 15 16 17 18 19 20 21 22 23 24 25 26 27 28 29 30 31 32 33 34 35 36 37 38 39 40 41 42 43 44 45 46 47 48 49 50
000
ASUS43 KBIS 011320
RWRBIS

NWR BROADCAST TEXT
NATIONAL WEATHER SERVICE BISMARCK ND
700 AM CST SUN FEB 01 2015

NOTE: "FAIR" INDICATES FEW OR NO CLOUDS BELOW 12,000 FEET WITH NO
SIGNIFICANT WEATHER AND/OR OBSTRUCTIONS TO VISIBILITY.


CITY           SKY/WX    TMP DP  RH WIND       PRES   REMARKS
WILLISTON      MOCLDY   -15 -20  78 W3        30.50S
MINOT          PTCLDY   -11 -18  71 NW5       30.51R WCI -23
MINOT AFB      PTCLDY   -10 -17  72 NW6       30.52R WCI -24
BISMARCK       MOCLDY    -6 -15  65 N10       30.49S WCI -24
DICKINSON      MOCLDY    -6 -11  79 NW6       30.38R WCI -19
GARRISON         N/A     -9 -16  71 N7        30.48R WCI -24
HETTINGER ARPT LGT SNOW  -3  -8  79 N8        30.38R WCI -18
JAMESTOWN      CLOUDY    -7 -15  68 N17       30.45R WCI -30
BEACH          CLOUDY    -8 -11  84 NW6       30.42R WCI -21
CARRINGTON     FAIR      -9 -17  70 MISG      30.49R
CROSBY         FAIR      -9 -13  84 W3        30.50F
HARVEY         FAIR     -11 -18  70 N8        30.50S WCI -28
HAZEN          CLOUDY    -8 -17  65 N5        30.51R WCI -19
LINTON         CLOUDY    -6 N/A N/A N15       30.45R WCI -27
MANDAN         CLOUDY    -6 -13  71 N9        30.46R WCI -22
OAKES            N/A     -4 -11  71 N22       30.42R WCI -28
RUGBY          FAIR     -13 -20  70 CALM      30.52S
STANLEY        FAIR     -13 -18  77 NW5       30.46R WCI -25
TIOGA          FAIR     -18 -22  83 W5        30.49S WCI -31
WATFORD CITY   FAIR     -11 -17  77 CALM      30.48R
$$

CITY           SKY/WX    TMP DP  RH WIND       PRES   REMARKS
GRAND FORKS    PTCLDY   -12 -20  67 N15       30.57S WCI -35
GRAND FORKS AF PTCLDY   -12 -21  64 N13       30.57S WCI -34
DEVILS LAKE    MOCLDY   -11 -22  58 N7        30.50R WCI -26
FARGO          CLOUDY    -6 -14  68 N21       30.48R WCI -30
CANDO          FAIR     -15 -22  70 N6        30.53S WCI -29
CAVALIER       FAIR     -11 -18  70 N6        30.60S WCI -25
GWINNER        CLOUDY    -4 -13  65 N17       30.43R WCI -26
ROLLA          FAIR     -15 -22  70 NW3       30.48S
WALHALLA         N/A    -13 -20  70 NW5       30.59S WCI -25
$$

CITY           SKY/WX    TMP DP  RH WIND       PRES   REMARKS
ABERDEEN       LGT SNOW  -1  -8  72 N23       30.39R WCI -25
MOBRIDGE       LGT SNOW  -3  -9  75 N15       30.40R WCI -23
BUFFALO          N/A      0  -6  76 NW12      30.27R WCI -17
RAPID CITY     MOCLDY     2  -2  83 N16       30.29R WCI -18
GLASGOW        PTCLDY    -4  -7  87 S6        30.45F WCI -16
SIDNEY         PTCLDY   -11 -17  77 W6        30.52F WCI -25
WOLF POINT     MOCLDY   -11 -16  78 W5        30.51S WCI -23
GLENDIVE       PTCLDY    -9  -9 100 CALM      30.45S
MILES CITY     CLEAR     -1  -4  87 W3        30.44R
BAKER          MOCLDY    -4  -9  79 NW9       30.39R WCI -20
$$

CITY           SKY/WX    TMP DP  RH WIND       PRES   REMARKS
BILLINGS       PTCLDY     6   2  83 CALM      30.34S
GREAT FALLS    CLOUDY    -3  -6  87 S8        30.25F WCI -18
REGINA         PTCLDY   -17 -20  83 S6        30.47F WCI -31
ESTEVAN        PTCLDY   -13 -18  77 SW2       30.48F
$$



USA.gov is the U.S. government's official web portal to all federal, state and local government web resources and services.